Content
SEND FEEDBACK

Daily
Averages
Monthly
Summary
United Kingdom

LONDON, ENGLAND


Home > Europe > United Kingdom > England
Elevation: 203 feet     Latitude: 51 09N     Longitude: 000 11W

WEATHER
 
SELECT A DAY
Number of Records: 293,611;   Date Range: 7/1/96 - 8/18/14
 
SHARE

PRINT THIS DATA

[ ← Previous Day ]
WEATHER ALMANAC - MAY 7, 2013
[ Next Day → ]
[ °C ]   °F
Weather ElementAverageHighLow
Temperature57.6 °F69.8 °F (1:20 pm)41 °F (5:50 am)
Dewpoint43.5 °F48.2 °F (2:50 pm)39.2 °F (5:20 am)
Humidity63 %93 % (2:50 am)38 % (1:50 pm)
Barometer30.01 in30.09 in (12:50 am)29.89 in (10:50 pm)
Wind Speed4.2 mph10.4 mph (3:20 pm)
Weather ElementAverage
Visibility5 mi
Wind DirectionENE (67.9 °)

Weather ElementTotal
Precipitation---
Heating Degree Days9.6 (Base 65)
Growing Degree Days5.4 (Base 50)
Averaged from 47 records on May 7, 2013
WEATHER CONDITIONS BREAKOUT
WIND DIRECTION BREAKOUT
WEATHER BY HOUR - MAY 7, 2013
[ °C ]   °F
Local TimeTemperatureDewpointHumidityBarometerVisibilityWind DirectionWind SpeedGust SpeedPrecipitationEventsConditions
12:50 AM46.4 °F42.8 °F87 %30.09 inCalmClear
1:20 AM48.2 °F42.8 °F82 %30.06 inCalmClear
1:50 AM46.4 °F42.8 °F87 %30.06 inCalmClear
2:20 AM44.6 °F41.0 °F87 %30.06 inCalmClear
2:50 AM42.8 °F41.0 °F93 %30.06 inCalmClear
3:20 AM44.6 °F41.0 °F87 %30.06 inVariable2.3 mphClear
3:50 AM42.8 °F41.0 °F93 %30.06 inCalmClear
4:20 AM42.8 °F41.0 °F93 %30.06 inVariable2.3 mphClear
4:50 AM42.8 °F41.0 °F93 %30.04 inCalmClear
5:20 AM42.8 °F39.2 °F87 %30.06 in5.0 miCalm
5:50 AM41.0 °F39.2 °F93 %30.06 inVariable2.3 mphClear
6:20 AM41.0 °F39.2 °F93 %30.06 inVariable3.5 mphClear
6:50 AM44.6 °F42.8 °F93 %30.06 inEast (100°)3.5 mphClear
7:20 AM48.2 °F42.8 °F82 %30.06 inVariable2.3 mphClear
7:50 AM51.8 °F44.6 °F76 %30.06 inVariable2.3 mphClear
8:20 AM53.6 °F44.6 °F72 %30.06 inVariable3.5 mphClear
8:50 AM57.2 °F46.4 °F67 %30.06 inNE (50°)4.6 mphClear
9:20 AM59.0 °F46.4 °F63 %30.06 inENE (60°)5.8 mphClear
9:50 AM60.8 °F46.4 °F59 %30.04 inVariable3.5 mphClear
10:20 AM64.4 °F42.8 °F45 %30.04 inENE (70°)4.6 mphClear
10:50 AM64.4 °F42.8 °F45 %30.04 inENE (70°)5.8 mphClear
11:20 AM66.2 °F44.6 °F46 %30.04 inENE (70°)6.9 mphClear
11:50 AM66.2 °F44.6 °F46 %30.04 inVariable4.6 mphClear
12:20 PM68.0 °F44.6 °F43 %30.04 inVariable4.6 mphClear
12:50 PM68.0 °F44.6 °F43 %30.04 inSouth (170°)8.1 mphClear
1:20 PM69.8 °F44.6 °F40 %30.01 inSSE (160°)5.8 mphClear
1:50 PM69.8 °F42.8 °F38 %30.01 inESE (120°)6.9 mphClear
2:20 PM69.8 °F44.6 °F40 %30.01 inSE (130°)6.9 mphClear
2:50 PM69.8 °F48.2 °F46 %30.01 inEast (100°)6.9 mphClear
3:20 PM68.0 °F46.4 °F46 %30.01 inEast (100°)10.4 mphClear
3:50 PM66.2 °F44.6 °F46 %29.98 inSE (130°)8.1 mphClear
4:20 PM66.2 °F42.8 °F43 %29.98 inSE (130°)5.8 mphClear
4:50 PM68.0 °F46.4 °F46 %29.98 inESE (120°)5.8 mphClear
5:20 PM68.0 °F42.8 °F40 %29.95 inSE (130°)5.8 mphClear
5:50 PM68.0 °F42.8 °F40 %29.95 inESE (110°)6.9 mphClear
6:20 PM68.0 °F42.8 °F40 %29.95 inSE (130°)4.6 mphClear
6:50 PM68.0 °F42.8 °F40 %29.95 inSSE (150°)5.8 mphClear
7:20 PM66.2 °F42.8 °F43 %29.95 inSSE (160°)6.9 mphClear
7:50 PM64.4 °F42.8 °F45 %29.95 inSSE (160°)3.5 mphClear
8:20 PM62.6 °F44.6 °F52 %29.92 inSSE (150°)4.6 mphClear
8:50 PM60.8 °F44.6 °F55 %29.92 inESE (110°)4.6 mphClear
9:20 PM59.0 °F44.6 °F59 %29.92 inEast (100°)4.6 mphClear
9:50 PM55.4 °F44.6 °F67 %29.92 inEast (100°)5.8 mphClear
10:20 PM55.4 °F46.4 °F72 %29.92 inEast (90°)4.6 mphClear
10:50 PM57.2 °F44.6 °F63 %29.89 inSE (130°)4.6 mphClear
11:20 PM53.6 °F44.6 °F72 %29.89 inVariable2.3 mphClear
11:50 PM53.6 °F44.6 °F72 %29.89 inEast (90°)3.5 mphClear
Hourly data recorded from EGKK, located miles away from London, England







STORIES FROM OUR PARTNERS